Home > Weather > Greater Sudbury > Past weeks

Flag for Canada Weather for the Past 2 Weeks in Greater Sudbury, Ontario, Canada

Now
-18 °F

Extremely cold.


Feels Like: -46 °F
Forecast: -25 / -9 °F
Wind: 20 mph from North

Location: Sudbury

Current Time: Feb 12, 2016 at 9:51:54 PM

Latest Report: Feb 12, 2016 at 9:00 PM


Visibility: 15 mi

Pressure: 30.16 "Hg

Humidity: 62%

Dew point: -27 °F

Location of Greater SudburyLocation

Historic Weather in Greater Sudbury — Graph

°F

Greater Sudbury Temperature Yesterday

Maximum temperature yesterday: 1 °F (at 3:00 PM)
Minimum temperature yesterday: -17 °F (at 8:00 AM)
Average temperature yesterday: -7 °F

High & Low Weather Summary for the Past Weeks

 TemperatureHumidityPressure
High36 °F (Jan 31, 1:00 PM)100% (Jan 30, 10:00 AM)30.36 "Hg (Jan 30, 10:00 AM)
Low-17 °F (Feb 11, 8:00 AM)55% (Feb 11, 3:00 PM)29.41 "Hg (Feb 3, 2:00 PM)
Average14 °F86%29.87 "Hg
* Reported Jan 28 8:00 PM — Feb 12 8:00 PM, Greater Sudbury, Weather by CustomWeather, © 2016

Note: Actual official high and low records may vary slightly from our data, if they occured in-between our weather recording intervals... More about our weather records

Advertising

Greater Sudbury Weather History for the Previous 24 Hours

 ConditionsComfort  
Time TempWeatherWind HumidityBarometerVisibility
8:00 PM
Fri, Feb 12
-15 °FLight snow. Partly cloudy.15 mph69%30.13 "Hg15 mi
7:00 PM-11 °FLight snow. Passing clouds.13 mph70%30.09 "Hg15 mi
6:00 PM-9 °FLow level haze.13 mph70%30.06 "Hg15 mi
5:00 PM-4 °FScattered clouds.12 mph59%30.01 "Hg15 mi
4:00 PM-2 °FLight snow. Scattered clouds.16 mph65%29.98 "Hg15 mi
3:00 PM1 °FLight snow. Partly sunny.16 mph65%29.93 "Hg12 mi
2:00 PM3 °FLight snow. Partly sunny.15 mph72%29.90 "Hg6 mi
1:00 PM7 °FLight snow. Partly sunny.9 mph66%29.89 "Hg12 mi
12:00 PM7 °FPartly sunny.10 mph66%29.90 "Hg15 mi
11:00 AM1 °FScattered clouds.10 mph78%29.89 "Hg20 mi
10:00 AM1 °FPassing clouds.12 mph85%29.88 "Hg20 mi
9:00 AM-2 °FPartly sunny.7 mph84%29.89 "Hg20 mi
8:00 AM-2 °FBroken clouds.8 mph84%29.89 "Hg20 mi
7:00 AM-2 °FLight snow. Mostly cloudy.7 mph84%29.89 "Hg5 mi
6:00 AM0 °FLight snow. Partly cloudy.2 mph78%29.89 "Hg3 mi
5:00 AM1 °FLight snow. Ice fog.5 mph85%29.90 "Hg2 mi
4:00 AM1 °FLight snow. Ice fog.2 mph85%29.92 "Hg2 mi
3:00 AM0 °FLight snow. Mostly cloudy.3 mph84%29.96 "Hg5 mi
2:00 AM0 °FLight snow. Mostly cloudy.3 mph84%29.98 "Hg5 mi
1:00 AM-4 °FLight snow. Overcast.3 mph84%30.01 "Hg10 mi
12:47 AM-4 °FLight snow. Overcast.3 mph84%30.03 "Hg12 mi
12:00 AM-4 °FPassing clouds.3 mph84%30.04 "Hg15 mi
11:00 PM
Thu, Feb 11
-4 °FLight snow. Overcast.2 mph84%30.06 "Hg15 mi
10:00 PM-6 °FPassing clouds.2 mph92%30.09 "Hg15 mi
9:00 PM-8 °FPassing clouds.3 mph92%30.10 "Hg15 mi
Weather by CustomWeather, © 2016

See weather overviewHow to use our weather pages